Location: Hermaringen
(48.5952°N, 10.2585°E)
Time: 17:49:41
(UTC+00:00)

Injun/Solrad 3 - Pass Details

Date: 20 February 2026
Orbit: 872 x 984 km, 66.8° (Epoch: 6 March)

Event Time Altitude Azimuth Distance (km) Brightness Sun altitude
Rises 18:37:08 0° 324° (NW) 3,570 11.6 -18.7°
Reaches altitude 10° 18:39:38 10° 323° (NW) 2,641 10.8 -19.1°
Maximum altitude 18:45:48 80° 237° (WSW) 968 8.0 -20.1°
Enters shadow 18:50:46 17° 153° (SSE) 2,210 9.5 -20.9°
